Powrót do katalogu

DELTA 1 DEB

AktywnySSO
NORAD 7149·DEBRIS·🇺🇸 United States

Wystrzelony Nov 6, 1973 z Vandenberg Space Force Base

Loading…

Następne Przeloty (najbliższe 24 godziny)

TLE

ŚwieżeSource: Space-Track

Epoka: Sep 14, 2026, 13:21 UTC

1 07149U 73086DP  26257.55658748  .00000343  00000-0  28526-2 0  9990
2 07149 102.1219  11.7821 0053535 203.2862 223.8516 12.41220464386126

Śledź DELTA 1 DEB w czasie rzeczywistym z AllMySat

Download on the App Store